EW0036 Weather Reports


time (UTC)temp
F
wind
direction
speed
knots
gust
knots
rain 1hr
in
rain 24hr
in
rain mn
in
humidity
%
barometer
mb
20260506185059 72 150 0.0 0.9 0.00 0.00 0.00 35 1009.5
20260506184058 72 173 0.9 0.9 0.00 0.00 0.00 35 1009.5
20260506183058 72 136 0.0 0.9 0.00 0.00 0.00 35 1009.5
20260506182057 73 151 0.0 0.9 0.00 0.00 0.00 34 1009.1
20260506181056 73 195 0.0 0.0 0.00 0.00 0.00 34 1009.1
20260506180046 74 176 0.0 0.9 0.00 0.00 0.00 33 1009.1
20260506175013 75 257 0.9 0.9 0.00 0.00 0.00 33 1009.1
20260506173910 75 240 0.9 0.9 0.00 0.00 0.00 31 1009.1
20260506172909 76 200 0.0 0.9 0.00 0.00 0.00 31 1008.8
20260506171908 77 176 0.0 5.2 0.00 0.00 0.00 30 1008.8
20260506170907 77 133 0.0 5.2 0.00 0.00 0.00 30 1008.8
20260506165804 78 148 0.0 1.7 0.00 0.00 0.00 29 1008.5
20260506164803 79 192 0.9 1.7 0.00 0.00 0.00 29 1008.5
20260506163801 80 252 0.9 2.6 0.00 0.00 0.00 28 1008.5
20260506162800 81 223 0.9 2.6 0.00 0.00 0.00 27 1008.5
20260506161727 82 212 0.9 2.6 0.00 0.00 0.00 26 1008.5
20260506160725 84 276 0.0 3.5 0.00 0.00 0.00 25 1008.5
20260506155724 85 154 1.7 3.5 0.00 0.00 0.00 25 1008.5
20260506154723 86 139 1.7 3.5 0.00 0.00 0.00 24 1008.5
20260506153721 87 207 0.9 5.2 0.00 0.00 0.00 23 1008.5
20260506152720 88 184 1.7 3.5 0.00 0.00 0.00 22 1008.5
20260506151649 87 103 0.9 3.5 0.00 0.00 0.00 23 1008.5
20260506150648 88 280 0.9 5.2 0.00 0.00 0.00 22 1008.5
20260506145647 88 120 0.9 5.2 0.00 0.00 0.00 22 1008.5
20260506144646 89 262 1.7 4.3 0.00 0.00 0.00 21 1008.5
20260506143645 88 233 1.7 5.2 0.00 0.00 0.00 23 1008.5
20260506142644 90 198 1.7 5.2 0.00 0.00 0.00 21 1008.5
20260506141632 90 221 1.7 6.1 0.00 0.00 0.00 23 1008.5
20260506140630 89 186 0.9 6.1 0.00 0.00 0.00 23 1008.5
20260506135629 89 170 0.9 3.5 0.00 0.00 0.00 22 1008.5
20260506134628 89 207 0.9 3.5 0.00 0.00 0.00 23 1008.5
20260506133625 88 110 1.7 3.5 0.00 0.00 0.00 22 1008.5
20260506132624 88 213 1.7 8.7 0.00 0.00 0.00 22 1008.5
20260506131623 88 171 1.7 8.7 0.00 0.00 0.00 22 1008.8
20260506130621 89 217 1.7 4.3 0.00 0.00 0.00 22 1008.8
20260506125620 89 274 0.0 4.3 0.00 0.00 0.00 22 1008.8
20260506124619 88 184 0.9 3.5 0.00 0.00 0.00 22 1008.8
20260506123618 88 333 1.7 5.2 0.00 0.00 0.00 20 1008.8
20260506121421 90 274 0.9 3.5 0.00 0.00 0.00 20 1009.1
20260506120420 89 160 0.9 2.6 0.00 0.00 0.00 21 1009.1
20260506115418 89 286 0.9 4.3 0.00 0.00 0.00 22 1009.1
20260506114417 89 193 0.9 4.3 0.00 0.00 0.00 21 1009.5
20260506113319 89 223 1.7 4.3 0.00 0.00 0.00 20 1009.5
20260506112316 89 205 0.9 2.6 0.00 0.00 0.00 23 1009.5
20260506111315 89 125 0.9 1.7 0.00 0.00 0.00 22 1009.5
20260506110310 89 287 0.9 2.6 0.00 0.00 0.00 21 1009.8
20260506105308 88 311 1.7 2.6 0.00 0.00 0.00 22 1009.8
20260506104305 88 188 1.7 3.5 0.00 0.00 0.00 24 1009.8
20260506103304 88 198 0.9 2.6 0.00 0.00 0.00 23 1009.8
20260506102245 88 128 0.9 2.6 0.00 0.00 0.00 23 1009.8
20260506101245 88 267 0.9 2.6 0.00 0.00 0.00 24 1009.8
20260506100244 87 18 0.9 1.7 0.00 0.00 0.00 26 1009.8
20260506095243 87 268 0.9 4.3 0.00 0.00 0.00 27 1009.8
20260506093216 86 80 0.9 3.5 0.00 0.00 0.00 29 1010.2
20260506092214 86 226 0.9 2.6 0.00 0.00 0.00 30 1010.2
20260506091213 86 106 0.9 1.7 0.00 0.00 0.00 28 1010.2
20260506090212 85 201 0.9 1.7 0.00 0.00 0.00 31 1010.2
20260506085211 86 195 0.9 1.7 0.00 0.00 0.00 29 1010.2
20260506084210 85 214 0.0 1.7 0.00 0.00 0.00 29 1010.2
20260506083209 84 259 0.9 1.7 0.00 0.00 0.00 30 1010.2
20260506082137 83 287 0.9 1.7 0.00 0.00 0.00 34 1010.2
20260506081104 83 215 0.9 1.7 0.00 0.00 0.00 33 1010.2
20260506073035 80 142 0.9 1.7 0.00 0.00 0.00 35 1010.2
20260506072034 79 313 0.9 1.7 0.00 0.00 0.00 35 1010.2
20260506071033 78 88 0.9 1.7 0.00 0.00 0.00 36 1010.2
20260506061919 75 109 0.9 1.7 0.00 0.00 0.00 38 1010.2
20260506060913 74 139 0.0 0.9 0.00 0.00 0.00 40 1010.2
20260506050835 65 186 0.9 2.6 0.00 0.00 0.00 50 1009.8
20260506044833 63 145 0.9 1.7 0.00 0.00 0.00 50 1009.8
20260506043833 62 222 0.9 1.7 0.00 0.00 0.00 52 1009.8
20260506042832 61 250 0.0 2.6 0.00 0.00 0.00 53 1009.5
20260506041831 61 211 0.9 2.6 0.00 0.00 0.00 53 1009.5
20260506040828 61 211 0.9 2.6 0.00 0.00 0.00 54 1009.5
20260506035827 61 278 1.7 4.3 0.00 0.00 0.00 54 1009.5
20260506034826 61 55 0.9 4.3 0.00 0.00 0.00 54 1009.5
20260506033825 61 246 0.9 3.5 0.00 0.00 0.00 53 1009.5
20260506032824 61 168 0.9 3.5 0.00 0.00 0.00 53 1009.5
20260506031823 60 241 1.7 3.5 0.00 0.00 0.00 54 1009.5
20260506030750 60 196 0.9 2.6 0.00 0.00 0.00 56 1009.5
20260506025749 60 153 0.9 3.5 0.00 0.00 0.00 56 1009.5
20260506024748 59 21 0.9 3.5 0.00 0.00 0.00 56 1009.1
20260506023747 58 205 0.9 1.7 0.00 0.00 0.00 58 1009.1
20260506022747 57 116 0.9 0.9 0.00 0.00 0.00 61 1009.1
20260506021746 57 149 0.0 0.9 0.00 0.00 0.00 61 1009.1
20260506020745 58 197 0.0 0.9 0.00 0.00 0.00 60 1009.1
20260506015713 58 166 0.0 1.7 0.00 0.00 0.00 59 1009.1
20260506014712 58 134 0.9 1.7 0.00 0.00 0.00 59 1009.1
20260506013711 59 158 0.0 1.7 0.00 0.00 0.00 58 1009.1
20260506012710 59 207 0.9 1.7 0.00 0.00 0.00 58 1009.1
20260506011709 59 176 0.0 1.7 0.00 0.00 0.00 57 1009.1
20260506010708 60 218 0.9 2.6 0.00 0.00 0.00 56 1009.1
20260506005707 61 196 1.7 2.6 0.00 0.00 0.00 55 1009.1
20260506004706 61 107 0.0 4.3 0.00 0.00 0.00 54 1009.1
20260506003634 61 139 0.9 4.3 0.00 0.00 0.00 54 1009.1
20260506002633 62 204 0.9 1.7 0.00 0.00 0.00 53 1009.1
20260506001632 62 185 0.9 1.7 0.00 0.00 0.00 52 1008.8
20260506000529 62 211 0.9 1.7 0.00 0.00 0.00 52 1008.8
20260505235528 63 121 0.9 1.7 0.00 0.00 0.00 51 1008.8
20260505234527 63 189 0.9 4.3 0.00 0.00 0.00 51 1008.8
20260505233526 63 189 0.9 4.3 0.00 0.00 0.00 50 1008.8
20260505232525 64 229 0.9 1.7 0.00 0.00 0.00 50 1008.8
20260505231524 64 240 1.7 3.5 0.00 0.00 0.00 49 1008.8
20260505230523 64 222 0.9 1.7 0.00 0.00 0.00 49 1008.8
20260505225451 64 229 0.9 3.5 0.00 0.00 0.00 48 1008.8
20260505224450 65 144 0.9 3.5 0.00 0.00 0.00 48 1008.8
20260505223449 65 183 0.9 2.6 0.00 0.00 0.00 47 1009.1
20260505222417 65 239 0.9 1.7 0.00 0.00 0.00 47 1009.1
20260505221416 65 160 0.9 3.5 0.00 0.00 0.00 46 1009.1
20260505220344 66 138 0.9 3.5 0.00 0.00 0.00 46 1009.1
20260505215343 66 190 0.9 4.3 0.00 0.00 0.00 46 1009.1
20260505214342 66 238 0.9 4.3 0.00 0.00 0.00 46 1008.8
20260505213341 65 51 0.9 0.9 0.00 0.00 0.00 46 1008.8
20260505212340 66 211 0.9 0.9 0.00 0.00 0.00 45 1009.1
20260505211307 67 33 0.0 0.9 0.00 0.00 0.00 43 1009.1
20260505210306 67 200 0.0 7.0 0.00 0.00 0.00 44 1008.8
20260505205305 67 259 0.9 7.0 0.00 0.00 0.00 43 1008.8
20260505204233 67 294 0.9 3.5 0.00 0.00 0.00 43 1008.8
20260505203232 65 284 0.9 0.9 0.00 0.00 0.00 45 1008.8
20260505202231 65 197 0.0 0.9 0.00 0.00 0.00 45 1008.8
20260505201230 64 297 0.9 0.9 0.00 0.00 0.00 46 1008.8
20260505200229 65 195 0.0 0.0 0.00 0.00 0.00 46 1008.8
20260505195228 65 194 0.0 0.0 0.00 0.00 0.00 46 1008.8
20260505194227 66 194 0.0 0.0 0.00 0.00 0.00 45 1008.8
20260505193227 67 194 0.0 0.9 0.00 0.00 0.00 43 1008.5
20260505192226 68 194 0.0 1.7 0.00 0.00 0.00 42 1008.5
20260505191225 67 82 0.9 1.7 0.00 0.00 0.00 43 1008.5
20260505190224 66 221 1.7 2.6 0.00 0.00 0.00 44 1008.5
20260505185222 66 222 0.0 0.0 0.00 0.00 0.00 44 1008.5